カタログに戻る

COSMOS 565

運用中軍事LEO
NORAD 6676·PAYLOAD·🇷🇺 Russia

打ち上げ Jun 8, 1973 から Plesetsk Cosmodrome

Loading…

次のパス (今後24時間)

TLE

最新Source: Space-Track

元期: Sep 14, 2026, 10:21 UTC

1 06676U 73037B   26257.43191302 -.00000027  00000-0 -72715-4 0  9997
2 06676  74.0153 247.3242 0025514 159.2821 274.3647 12.48972112428651

AllMySatでCOSMOS 565をリアルタイム追跡

Download on the App Store